QPF
0.00 0.01 0.01 0.04 0.11 0.12 0.15 0.15 0.09 0.06 0.04 0.03 0.04 0.06 0.06 0.07 0.06 0.04 0.09 0.13 0.06 0.04 0.03 0.06 0.08 0.07 0.04 0.03 0.03 0.02 0.02 0.02 0.03 0.04 0.03 0.03 0.03 0.02 0.01 0.02 0.02 0.01 0.01 0.03 0.02 0.02 0.02 0.02 0.03
0.01 0.01 0.04 0.10 0.13 0.09 0.14 0.14 0.07 0.03 0.02 0.02 0.02 0.02 0.04 0.03 0.03 0.06 0.16 0.16 0.07 0.03 0.02 0.04 0.07 0.06 0.04 0.04 0.04 0.03 0.03 0.05 0.04 0.04 0.03 0.02 0.02 0.02 0.01 0.02 0.01 0.01 0.01 0.01 0.01 0.02 0.02 0.01 0.01
0.01 0.02 0.07 0.11 0.10 0.07 0.09 0.10 0.04 0.02 0.02 0.02 0.02 0.02 0.03 0.02 0.04 0.11 0.18 0.13 0.07 0.03 0.02 0.03 0.05 0.06 0.04 0.03 0.04 0.03 0.03 0.04 0.04 0.04 0.03 0.02 0.02 0.02 0.02 0.02 0.02 0.01 0.00 0.00 0.01 0.01 0.01 0.01 0.01
0.02 0.03 0.07 0.09 0.07 0.06 0.05 0.06 0.04 0.02 0.02 0.01 0.01 0.02 0.01 0.04 0.06 0.10 0.10 0.06 0.04 0.02 0.02 0.02 0.03 0.05 0.04 0.03 0.03 0.03 0.02 0.02 0.03 0.04 0.05 0.05 0.06 0.05 0.03 0.03 0.02 0.02 0.01 0.01 0.01 0.01 0.02 0.02 0.01
0.01 0.04 0.05 0.05 0.04 0.09 0.07 0.04 0.02 0.02 0.03 0.02 0.01 0.03 0.02 0.05 0.05 0.07 0.06 0.04 0.03 0.01 0.01 0.02 0.05 0.05 0.05 0.04 0.03 0.02 0.02 0.03 0.04 0.04 0.04 0.04 0.05 0.05 0.04 0.03 0.02 0.01 0.01 0.01 0.01 0.01 0.01 0.01 0.01
0.02 0.04 0.04 0.04 0.04 0.06 0.06 0.04 0.01 0.02 0.02 0.02 0.02 0.04 0.03 0.05 0.04 0.04 0.05 0.07 0.04 0.02 0.01 0.02 0.05 0.05 0.05 0.06 0.05 0.04 0.03 0.04 0.04 0.03 0.03 0.04 0.04 0.05 0.03 0.02 0.01 0.00 0.00 0.00 0.00 0.01 0.01 0.02 0.01
0.02 0.04 0.04 0.04 0.04 0.06 0.04 0.03 0.02 0.01 0.02 0.02 0.02 0.03 0.03 0.04 0.03 0.02 0.03 0.08 0.07 0.03 0.01 0.02 0.03 0.05 0.04 0.04 0.05 0.05 0.04 0.03 0.03 0.02 0.03 0.04 0.02 0.02 0.01 0.01 0.00 0.01 0.01 0.00 0.00 0.01 0.01 0.02 0.03
0.02 0.04 0.03 0.04 0.05 0.05 0.03 0.01 0.01 0.02 0.02 0.01 0.01 0.04 0.04 0.03 0.02 0.02 0.02 0.03 0.04 0.02 0.01 0.03 0.02 0.02 0.01 0.01 0.02 0.02 0.03 0.02 0.02 0.01 0.01 0.02 0.01 0.01 0.01 0.01 0.00 0.00 0.00 0.00 0.01 0.01 0.02 0.03 0.04
0.01 0.04 0.03 0.04 0.04 0.04 0.02 0.01 0.01 0.01 0.02 0.03 0.02 0.01 0.02 0.03 0.02 0.02 0.03 0.02 0.02 0.02 0.01 0.02 0.01 0.01 0.00 0.00 0.02 0.02 0.02 0.01 0.01 0.01 0.01 0.01 0.00 0.00 0.00 0.01 0.01 0.01 0.01 0.02 0.02 0.02 0.03 0.03 0.03
0.02 0.03 0.04 0.03 0.03 0.03 0.02 0.01 0.01 0.03 0.04 0.04 0.05 0.05 0.04 0.04 0.03 0.02 0.02 0.02 0.02 0.02 0.01 0.00 0.00 0.00 0.00 0.00 0.00 0.00 0.00 0.00 0.00 0.00 0.00 0.00 0.00 0.00 0.00 0.00 0.01 0.01 0.02 0.01 0.01 0.02 0.02 0.01 0.02
0.02 0.02 0.04 0.06 0.04 0.02 0.02 0.01 0.01 0.02 0.04 0.04 0.04 0.05 0.05 0.04 0.04 0.03 0.02 0.02 0.02 0.02 0.01 0.01 0.00 0.00 0.00 0.00 0.00 0.00 0.00 0.00 0.00 0.00 0.00 0.00 0.00 0.00 0.00 0.00 0.00 0.00 0.00 0.00 0.00 0.01 0.01 0.01 0.01
0.02 0.03 0.03 0.05 0.04 0.03 0.02 0.02 0.02 0.03 0.02 0.02 0.02 0.04 0.05 0.04 0.03 0.03 0.02 0.01 0.01 0.01 0.01 0.01 0.00 0.00 0.00 0.00 0.00 0.00 0.00 0.00 0.00 0.00 0.00 0.00 0.00 0.00 0.00 0.00 0.00 0.00 0.00 0.00 0.00 0.01 0.01 0.02 0.01
0.01 0.02 0.02 0.03 0.03 0.03 0.03 0.02 0.02 0.03 0.02 0.02 0.03 0.04 0.04 0.04 0.03 0.04 0.02 0.01 0.00 0.00 0.00 0.00 0.00 0.00 0.00 0.00 0.00 0.00 0.00 0.00 0.00 0.00 0.00 0.00 0.00 0.00 0.00 0.00 0.00 0.00 0.01 0.01 0.01 0.01 0.01 0.01 0.01
0.01 0.01 0.01 0.02 0.02 0.01 0.01 0.01 0.01 0.02 0.02 0.04 0.05 0.05 0.05 0.05 0.04 0.04 0.03 0.01 0.01 0.01 0.00 0.00 0.00 0.00 0.00 0.00 0.00 0.00 0.00 0.00 0.00 0.00 0.00 0.00 0.00 0.00 0.00 0.00 0.00 0.01 0.01 0.01 0.01 0.01 0.01 0.01 0.02
0.00 0.00 0.01 0.01 0.01 0.01 0.01 0.01 0.01 0.01 0.01 0.03 0.07 0.10 0.08 0.05 0.04 0.03 0.03 0.02 0.01 0.01 0.00 0.00 0.00 0.00 0.00 0.00 0.00 0.00 0.00 0.00 0.00 0.00 0.00 0.00 0.00 0.00 0.00 0.00 0.00 0.01 0.01 0.02 0.01 0.01 0.02 0.01 0.02
0.00 0.00 0.01 0.00 0.00 0.01 0.01 0.01 0.02 0.02 0.02 0.03 0.05 0.13 0.12 0.05 0.02 0.02 0.02 0.02 0.02 0.01 0.01 0.00 0.00 0.00 0.00 0.00 0.00 0.00 0.00 0.00 0.00 0.00 0.00 0.00 0.00 0.00 0.00 0.00 0.01 0.01 0.01 0.01 0.01 0.01 0.02 0.01 0.01
0.00 0.01 0.01 0.01 0.01 0.01 0.01 0.01 0.01 0.02 0.02 0.04 0.04 0.09 0.11 0.05 0.02 0.01 0.01 0.01 0.01 0.01 0.01 0.00 0.00 0.00 0.00 0.00 0.00 0.00 0.00 0.00 0.00 0.00 0.00 0.00 0.00 0.00 0.00 0.01 0.01 0.01 0.01 0.02 0.01 0.01 0.01 0.02 0.01
0.01 0.01 0.02 0.02 0.01 0.01 0.01 0.01 0.01 0.02 0.02 0.05 0.05 0.07 0.11 0.03 0.01 0.01 0.01 0.01 0.01 0.01 0.00 0.00 0.00 0.00 0.00 0.00 0.00 0.00 0.00 0.00 0.00 0.00 0.00 0.00 0.00 0.00 0.00 0.00 0.01 0.00 0.01 0.01 0.02 0.01 0.01 0.01 0.01
0.02 0.02 0.02 0.02 0.01 0.02 0.02 0.01 0.02 0.03 0.03 0.04 0.05 0.05 0.08 0.03 0.02 0.02 0.02 0.01 0.01 0.01 0.00 0.00 0.00 0.00 0.00 0.00 0.00 0.00 0.00 0.00 0.00 0.00 0.00 0.00 0.00 0.00 0.00 0.00 0.00 0.00 0.00 0.01 0.01 0.01 0.02 0.01 0.01
0.01 0.02 0.03 0.02 0.01 0.02 0.02 0.02 0.02 0.02 0.03 0.03 0.02 0.02 0.05 0.03 0.02 0.02 0.02 0.02 0.01 0.00 0.01 0.00 0.00 0.00 0.00 0.00 0.00 0.00 0.00 0.00 0.00 0.00 0.00 0.00 0.00 0.00 0.00 0.00 0.00 0.00 0.01 0.01 0.00 0.00 0.01 0.01 0.01
0.03 0.01 0.02 0.02 0.02 0.03 0.03 0.02 0.02 0.02 0.04 0.05 0.03 0.01 0.02 0.02 0.01 0.01 0.01 0.01 0.01 0.00 0.01 0.00 0.00 0.00 0.00 0.00 0.00 0.00 0.00 0.00 0.00 0.00 0.00 0.00 0.00 0.00 0.00 0.00 0.00 0.00 0.01 0.01 0.01 0.01 0.01 0.01 0.00
0.01 0.00 0.01 0.02 0.03 0.04 0.03 0.03 0.01 0.02 0.04 0.05 0.05 0.02 0.01 0.01 0.01 0.01 0.02 0.01 0.00 0.00 0.00 0.00 0.00 0.00 0.00 0.00 0.00 0.00 0.00 0.00 0.00 0.00 0.00 0.01 0.00 0.00 0.00 0.00 0.00 0.01 0.01 0.01 0.02 0.01 0.01 0.01 0.01
0.02 0.01 0.01 0.01 0.02 0.02 0.02 0.02 0.01 0.01 0.03 0.05 0.05 0.03 0.01 0.01 0.00 0.01 0.01 0.01 0.01 0.00 0.00 0.00 0.00 0.00 0.00 0.00 0.00 0.00 0.00 0.00 0.00 0.00 0.01 0.01 0.00 0.00 0.00 0.00 0.00 0.00 0.01 0.01 0.02 0.01 0.01 0.01 0.01
0.03 0.02 0.01 0.01 0.01 0.01 0.01 0.01 0.01 0.01 0.01 0.01 0.03 0.03 0.02 0.01 0.01 0.01 0.01 0.01 0.01 0.00 0.00 0.00 0.00 0.00 0.00 0.00 0.00 0.00 0.00 0.00 0.00 0.00 0.00 0.01 0.00 0.00 0.00 0.00 0.01 0.00 0.00 0.01 0.01 0.01 0.02 0.02 0.01
0.02 0.03 0.02 0.02 0.02 0.02 0.00 0.01 0.00 0.00 0.00 0.00 0.01 0.02 0.03 0.03 0.02 0.01 0.01 0.01 0.01 0.01 0.00 0.01 0.01 0.01 0.00 0.00 0.00 0.00 0.00 0.00 0.00 0.00 0.00 0.00 0.00 0.00 0.00 0.01 0.00 0.00 0.01 0.01 0.00 0.01 0.01 0.01 0.01
0.01 0.02 0.03 0.03 0.02 0.02 0.01 0.02 0.01 0.01 0.00 0.00 0.01 0.02 0.02 0.04 0.03 0.01 0.01 0.01 0.02 0.01 0.01 0.01 0.02 0.01 0.01 0.00 0.00 0.00 0.00 0.00 0.00 0.00 0.00 0.00 0.00 0.00 0.00 0.01 0.00 0.00 0.00 0.00 0.00 0.01 0.01 0.01 0.01
0.01 0.01 0.03 0.04 0.02 0.02 0.02 0.03 0.02 0.01 0.01 0.01 0.01 0.03 0.03 0.04 0.03 0.02 0.01 0.01 0.02 0.02 0.01 0.01 0.01 0.01 0.01 0.00 0.00 0.00 0.00 0.00 0.00 0.00 0.00 0.00 0.00 0.01 0.00 0.00 0.00 0.01 0.00 0.00 0.00 0.01 0.01 0.01 0.01
0.01 0.02 0.03 0.02 0.03 0.05 0.04 0.03 0.03 0.02 0.01 0.03 0.04 0.04 0.04 0.04 0.05 0.02 0.01 0.02 0.03 0.02 0.01 0.00 0.00 0.00 0.00 0.00 0.00 0.00 0.00 0.00 0.00 0.00 0.00 0.01 0.01 0.01 0.00 0.00 0.00 0.00 0.00 0.00 0.01 0.01 0.01 0.00 0.01
0.01 0.02 0.02 0.02 0.02 0.04 0.07 0.06 0.04 0.02 0.01 0.02 0.04 0.04 0.04 0.03 0.03 0.02 0.02 0.01 0.03 0.02 0.01 0.00 0.00 0.00 0.01 0.00 0.00 0.00 0.00 0.00 0.00 0.00 0.00 0.00 0.00 0.00 0.00 0.00 0.00 0.00 0.00 0.00 0.00 0.00 0.00 0.01 0.02
0.01 0.01 0.02 0.03 0.03 0.05 0.11 0.10 0.05 0.03 0.02 0.02 0.02 0.03 0.04 0.04 0.03 0.03 0.02 0.01 0.02 0.01 0.01 0.00 0.00 0.00 0.00 0.00 0.00 0.00 0.00 0.00 0.00 0.01 0.00 0.00 0.00 0.00 0.00 0.00 0.00 0.00 0.01 0.01 0.00 0.00 0.00 0.01 0.01
MSLP
1010.98 1011.92 1013.08 1014.28 1015.34 1016.09 1016.44 1016.39 1016.02 1015.48 1014.95 1014.59 1014.49 1014.66 1015.02 1015.46 1015.81 1015.95 1015.81 1015.41 1014.84 1014.21 1013.66 1013.28 1013.14 1013.20 1013.41 1013.67 1013.89 1014.02 1014.05 1013.99 1013.91 1013.87 1013.92 1014.08 1014.32 1014.60 1014.87 1015.07 1015.19 1015.21 1015.17 1015.09 1015.01 1014.96 1014.96 1014.99 1015.05
1011.38 1012.49 1013.75 1014.97 1015.96 1016.60 1016.79 1016.58 1016.05 1015.39 1014.78 1014.38 1014.27 1014.44 1014.82 1015.26 1015.62 1015.76 1015.63 1015.26 1014.72 1014.15 1013.66 1013.35 1013.26 1013.37 1013.61 1013.88 1014.11 1014.25 1014.28 1014.23 1014.17 1014.15 1014.21 1014.36 1014.58 1014.83 1015.06 1015.22 1015.29 1015.29 1015.23 1015.14 1015.06 1015.02 1015.02 1015.05 1015.10
1011.96 1013.17 1014.46 1015.64 1016.54 1017.03 1017.07 1016.72 1016.08 1015.35 1014.71 1014.30 1014.20 1014.38 1014.76 1015.18 1015.51 1015.63 1015.50 1015.15 1014.65 1014.14 1013.72 1013.48 1013.45 1013.60 1013.86 1014.15 1014.38 1014.51 1014.54 1014.51 1014.45 1014.44 1014.49 1014.62 1014.81 1015.01 1015.19 1015.30 1015.34 1015.30 1015.23 1015.15 1015.09 1015.07 1015.09 1015.13 1015.18
1012.67 1013.91 1015.16 1016.24 1017.01 1017.35 1017.26 1016.80 1016.11 1015.37 1014.76 1014.39 1014.32 1014.51 1014.86 1015.25 1015.53 1015.60 1015.45 1015.10 1014.65 1014.20 1013.86 1013.69 1013.72 1013.91 1014.18 1014.46 1014.67 1014.79 1014.81 1014.77 1014.73 1014.71 1014.76 1014.87 1015.02 1015.17 1015.29 1015.35 1015.35 1015.29 1015.22 1015.16 1015.13 1015.14 1015.19 1015.25 1015.31
1013.43 1014.62 1015.76 1016.69 1017.29 1017.50 1017.30 1016.80 1016.13 1015.45 1014.92 1014.63 1014.61 1014.81 1015.13 1015.46 1015.66 1015.68 1015.49 1015.14 1014.72 1014.34 1014.08 1013.99 1014.07 1014.28 1014.55 1014.80 1014.98 1015.06 1015.06 1015.01 1014.96 1014.95 1014.99 1015.09 1015.21 1015.32 1015.39 1015.40 1015.36 1015.29 1015.22 1015.17 1015.17 1015.22 1015.30 1015.38 1015.46
1014.13 1015.19 1016.17 1016.92 1017.35 1017.43 1017.18 1016.70 1016.11 1015.56 1015.16 1014.98 1015.03 1015.25 1015.53 1015.78 1015.90 1015.84 1015.60 1015.26 1014.88 1014.57 1014.38 1014.36 1014.48 1014.70 1014.94 1015.15 1015.27 1015.31 1015.27 1015.20 1015.15 1015.14 1015.18 1015.27 1015.37 1015.45 1015.48 1015.46 1015.39 1015.30 1015.23 1015.20 1015.22 1015.29 1015.38 1015.49 1015.56
1014.67 1015.56 1016.33 1016.87 1017.14 1017.13 1016.87 1016.46 1016.02 1015.65 1015.43 1015.40 1015.53 1015.76 1016.00 1016.16 1016.19 1016.05 1015.77 1015.43 1015.10 1014.86 1014.75 1014.79 1014.94 1015.15 1015.35 1015.49 1015.55 1015.51 1015.43 1015.33 1015.27 1015.27 1015.32 1015.42 1015.51 1015.58 1015.59 1015.53 1015.44 1015.33 1015.25 1015.21 1015.23 1015.31 1015.41 1015.51 1015.58
1015.00 1015.68 1016.23 1016.57 1016.70 1016.63 1016.41 1016.12 1015.86 1015.70 1015.68 1015.80 1016.02 1016.27 1016.46 1016.55 1016.47 1016.26 1015.95 1015.62 1015.34 1015.17 1015.13 1015.22 1015.40 1015.59 1015.74 1015.81 1015.78 1015.67 1015.54 1015.41 1015.35 1015.36 1015.43 1015.54 1015.64 1015.70 1015.69 1015.62 1015.49 1015.36 1015.25 1015.19 1015.20 1015.26 1015.34 1015.43 1015.48
1015.11 1015.59 1015.92 1016.08 1016.10 1016.00 1015.85 1015.72 1015.66 1015.72 1015.90 1016.16 1016.46 1016.72 1016.87 1016.87 1016.71 1016.43 1016.10 1015.79 1015.56 1015.46 1015.49 1015.63 1015.82 1015.98 1016.08 1016.07 1015.97 1015.79 1015.61 1015.46 1015.39 1015.41 1015.51 1015.64 1015.75 1015.81 1015.80 1015.70 1015.54 1015.38 1015.24 1015.15 1015.12 1015.15 1015.21 1015.27 1015.30
1015.07 1015.35 1015.49 1015.51 1015.45 1015.36 1015.30 1015.32 1015.46 1015.72 1016.07 1016.46 1016.81 1017.07 1017.16 1017.09 1016.86 1016.54 1016.19 1015.90 1015.72 1015.68 1015.78 1015.96 1016.15 1016.30 1016.35 1016.28 1016.11 1015.88 1015.66 1015.49 1015.42 1015.46 1015.57 1015.72 1015.85 1015.91 1015.88 1015.77 1015.59 1015.40 1015.22 1015.10 1015.03 1015.03 1015.05 1015.08 1015.09
1014.97 1015.09 1015.08 1014.99 1014.89 1014.82 1014.85 1015.01 1015.31 1015.73 1016.22 1016.69 1017.07 1017.31 1017.35 1017.21 1016.92 1016.55 1016.20 1015.93 1015.80 1015.82 1015.96 1016.17 1016.38 1016.51 1016.53 1016.42 1016.21 1015.95 1015.70 1015.53 1015.47 1015.51 1015.64 1015.80 1015.93 1015.99 1015.96 1015.83 1015.64 1015.42 1015.22 1015.07 1014.98 1014.95 1014.95 1014.96 1014.95
1014.91 1014.91 1014.80 1014.64 1014.51 1014.48 1014.58 1014.85 1015.27 1015.80 1016.37 1016.88 1017.25 1017.45 1017.43 1017.23 1016.89 1016.49 1016.13 1015.88 1015.79 1015.84 1016.02 1016.26 1016.48 1016.61 1016.62 1016.50 1016.28 1016.02 1015.77 1015.61 1015.55 1015.60 1015.72 1015.88 1016.00 1016.06 1016.02 1015.89 1015.69 1015.48 1015.27 1015.12 1015.02 1014.98 1014.97 1014.97 1014.96
1015.00 1014.92 1014.74 1014.54 1014.40 1014.39 1014.55 1014.88 1015.37 1015.95 1016.54 1017.04 1017.38 1017.52 1017.45 1017.19 1016.80 1016.38 1016.02 1015.78 1015.70 1015.78 1015.97 1016.22 1016.46 1016.60 1016.63 1016.53 1016.34 1016.10 1015.88 1015.73 1015.68 1015.73 1015.84 1015.97 1016.08 1016.12 1016.08 1015.95 1015.77 1015.57 1015.39 1015.26 1015.18 1015.16 1015.16 1015.18 1015.18
1015.28 1015.14 1014.92 1014.70 1014.56 1014.57 1014.75 1015.11 1015.61 1016.18 1016.74 1017.19 1017.48 1017.56 1017.43 1017.12 1016.71 1016.28 1015.90 1015.66 1015.57 1015.65 1015.84 1016.10 1016.34 1016.52 1016.58 1016.54 1016.41 1016.23 1016.05 1015.93 1015.88 1015.91 1015.99 1016.09 1016.17 1016.19 1016.14 1016.03 1015.87 1015.72 1015.58 1015.50 1015.47 1015.49 1015.53 1015.57 1015.60
1015.73 1015.55 1015.31 1015.08 1014.94 1014.95 1015.13 1015.48 1015.94 1016.46 1016.95 1017.34 1017.56 1017.58 1017.41 1017.07 1016.65 1016.20 1015.82 1015.57 1015.46 1015.51 1015.68 1015.93 1016.19 1016.40 1016.52 1016.55 1016.51 1016.40 1016.29 1016.20 1016.15 1016.15 1016.19 1016.24 1016.27 1016.26 1016.21 1016.11 1016.00 1015.90 1015.83 1015.81 1015.85 1015.93 1016.02 1016.11 1016.16
1016.26 1016.06 1015.80 1015.57 1015.44 1015.44 1015.60 1015.90 1016.30 1016.74 1017.15 1017.45 1017.60 1017.58 1017.39 1017.05 1016.63 1016.19 1015.81 1015.54 1015.40 1015.41 1015.55 1015.78 1016.04 1016.28 1016.48 1016.60 1016.65 1016.64 1016.59 1016.53 1016.49 1016.45 1016.44 1016.42 1016.39 1016.35 1016.28 1016.21 1016.14 1016.10 1016.10 1016.16 1016.26 1016.41 1016.56 1016.70 1016.80
1016.77 1016.56 1016.30 1016.09 1015.96 1015.95 1016.08 1016.32 1016.63 1016.97 1017.28 1017.50 1017.59 1017.54 1017.35 1017.04 1016.65 1016.25 1015.88 1015.59 1015.42 1015.39 1015.48 1015.67 1015.93 1016.21 1016.48 1016.69 1016.84 1016.92 1016.95 1016.92 1016.87 1016.80 1016.72 1016.63 1016.54 1016.46 1016.38 1016.31 1016.28 1016.30 1016.36 1016.48 1016.66 1016.86 1017.06 1017.25 1017.40
1017.16 1016.95 1016.72 1016.53 1016.42 1016.41 1016.49 1016.66 1016.88 1017.11 1017.31 1017.44 1017.49 1017.43 1017.27 1017.01 1016.68 1016.33 1015.99 1015.71 1015.52 1015.44 1015.49 1015.65 1015.90 1016.21 1016.53 1016.83 1017.07 1017.25 1017.34 1017.34 1017.28 1017.17 1017.03 1016.88 1016.73 1016.60 1016.50 1016.44 1016.43 1016.49 1016.60 1016.77 1016.98 1017.22 1017.46 1017.69 1017.88
1017.38 1017.19 1017.01 1016.87 1016.80 1016.78 1016.83 1016.92 1017.03 1017.13 1017.22 1017.27 1017.27 1017.21 1017.09 1016.91 1016.67 1016.40 1016.12 1015.86 1015.66 1015.55 1015.56 1015.69 1015.93 1016.26 1016.63 1017.00 1017.33 1017.58 1017.73 1017.76 1017.70 1017.56 1017.37 1017.15 1016.95 1016.78 1016.66 1016.60 1016.60 1016.67 1016.80 1016.98 1017.21 1017.46 1017.73 1017.98 1018.21
1017.41 1017.29 1017.20 1017.13 1017.11 1017.11 1017.11 1017.11 1017.09 1017.05 1017.01 1016.96 1016.91 1016.85 1016.78 1016.69 1016.56 1016.39 1016.19 1015.98 1015.81 1015.69 1015.67 1015.78 1016.01 1016.34 1016.75 1017.18 1017.58 1017.89 1018.09 1018.16 1018.10 1017.94 1017.71 1017.46 1017.21 1017.01 1016.87 1016.80 1016.80 1016.87 1016.99 1017.15 1017.36 1017.59 1017.85 1018.11 1018.37
1017.33 1017.32 1017.34 1017.39 1017.43 1017.44 1017.39 1017.28 1017.11 1016.91 1016.71 1016.54 1016.42 1016.35 1016.33 1016.32 1016.31 1016.26 1016.16 1016.03 1015.90 1015.80 1015.78 1015.87 1016.09 1016.44 1016.87 1017.34 1017.79 1018.16 1018.40 1018.50 1018.46 1018.30 1018.06 1017.78 1017.52 1017.30 1017.15 1017.06 1017.05 1017.09 1017.17 1017.30 1017.45 1017.64 1017.87 1018.12 1018.39
1017.25 1017.38 1017.55 1017.72 1017.83 1017.84 1017.73 1017.50 1017.16 1016.76 1016.38 1016.06 1015.84 1015.74 1015.74 1015.82 1015.91 1015.98 1016.01 1015.97 1015.91 1015.85 1015.84 1015.93 1016.16 1016.50 1016.95 1017.45 1017.94 1018.35 1018.64 1018.78 1018.76 1018.62 1018.39 1018.12 1017.86 1017.64 1017.48 1017.39 1017.35 1017.35 1017.39 1017.45 1017.54 1017.66 1017.83 1018.05 1018.32
1017.27 1017.57 1017.90 1018.19 1018.37 1018.38 1018.18 1017.80 1017.26 1016.66 1016.06 1015.57 1015.23 1015.07 1015.08 1015.21 1015.40 1015.59 1015.73 1015.81 1015.82 1015.82 1015.85 1015.95 1016.18 1016.54 1017.00 1017.51 1018.03 1018.48 1018.81 1018.99 1019.01 1018.90 1018.70 1018.46 1018.22 1018.01 1017.86 1017.75 1017.69 1017.66 1017.64 1017.63 1017.64 1017.69 1017.80 1017.97 1018.22
1017.47 1017.95 1018.44 1018.83 1019.06 1019.03 1018.74 1018.19 1017.45 1016.62 1015.82 1015.14 1014.67 1014.43 1014.42 1014.59 1014.85 1015.14 1015.39 1015.56 1015.67 1015.73 1015.80 1015.93 1016.17 1016.53 1017.00 1017.53 1018.07 1018.54 1018.91 1019.13 1019.20 1019.14 1018.98 1018.78 1018.57 1018.39 1018.25 1018.15 1018.07 1018.00 1017.93 1017.86 1017.81 1017.78 1017.82 1017.94 1018.15
1017.87 1018.50 1019.12 1019.59 1019.83 1019.75 1019.34 1018.63 1017.70 1016.65 1015.65 1014.80 1014.20 1013.89 1013.85 1014.02 1014.34 1014.70 1015.04 1015.30 1015.48 1015.61 1015.72 1015.89 1016.14 1016.51 1016.98 1017.52 1018.07 1018.57 1018.96 1019.22 1019.33 1019.32 1019.21 1019.06 1018.90 1018.75 1018.63 1018.54 1018.45 1018.37 1018.26 1018.15 1018.04 1017.95 1017.93 1017.99 1018.15
1018.41 1019.16 1019.85 1020.36 1020.57 1020.43 1019.90 1019.04 1017.94 1016.73 1015.57 1014.59 1013.88 1013.50 1013.42 1013.60 1013.94 1014.35 1014.75 1015.08 1015.32 1015.50 1015.66 1015.85 1016.12 1016.49 1016.97 1017.50 1018.06 1018.57 1018.98 1019.28 1019.43 1019.46 1019.40 1019.30 1019.18 1019.06 1018.97 1018.90 1018.83 1018.74 1018.62 1018.49 1018.34 1018.22 1018.15 1018.16 1018.27
1018.99 1019.80 1020.51 1021.00 1021.16 1020.93 1020.30 1019.32 1018.10 1016.79 1015.53 1014.47 1013.71 1013.28 1013.18 1013.35 1013.71 1014.14 1014.56 1014.93 1015.21 1015.43 1015.62 1015.83 1016.12 1016.50 1016.97 1017.50 1018.06 1018.57 1019.00 1019.30 1019.49 1019.56 1019.54 1019.48 1019.40 1019.33 1019.27 1019.22 1019.17 1019.10 1019.00 1018.87 1018.73 1018.59 1018.50 1018.48 1018.54
1019.50 1020.29 1020.95 1021.37 1021.45 1021.13 1020.42 1019.37 1018.10 1016.76 1015.49 1014.42 1013.65 1013.22 1013.12 1013.28 1013.63 1014.06 1014.49 1014.86 1015.16 1015.40 1015.62 1015.85 1016.15 1016.54 1017.01 1017.53 1018.07 1018.58 1019.00 1019.32 1019.52 1019.62 1019.63 1019.61 1019.57 1019.53 1019.52 1019.50 1019.49 1019.45 1019.39 1019.29 1019.17 1019.05 1018.96 1018.92 1018.95
1019.79 1020.51 1021.07 1021.37 1021.35 1020.94 1020.18 1019.12 1017.87 1016.58 1015.37 1014.37 1013.66 1013.27 1013.18 1013.34 1013.67 1014.08 1014.49 1014.85 1015.15 1015.40 1015.64 1015.89 1016.21 1016.60 1017.07 1017.59 1018.11 1018.60 1019.02 1019.33 1019.54 1019.65 1019.69 1019.70 1019.69 1019.70 1019.72 1019.75 1019.78 1019.80 1019.78 1019.73 1019.66 1019.58 1019.51 1019.48 1019.49
1019.84 1020.42 1020.83 1020.99 1020.85 1020.37 1019.58 1018.56 1017.39 1016.21 1015.13 1014.25 1013.64 1013.32 1013.27 1013.43 1013.74 1014.12 1014.49 1014.84 1015.13 1015.39 1015.64 1015.92 1016.26 1016.67 1017.14 1017.65 1018.16 1018.63 1019.03 1019.34 1019.54 1019.66 1019.73 1019.76 1019.79 1019.83 1019.89 1019.97 1020.06 1020.12 1020.17 1020.18 1020.16 1020.13 1020.10 1020.08 1020.08
Thickness
5804 5803 5800 5787 5764 5748 5743 5754 5765 5767 5770 5775 5778 5772 5763 5755 5751 5744 5763 5771 5772 5771 5770 5770 5769 5769 5768 5768 5768 5767 5767 5766 5765 5765 5764 5763 5762 5761 5761 5760 5759 5759 5758 5757 5757 5757 5757 5757 5757
5803 5802 5791 5772 5749 5733 5740 5755 5760 5769 5775 5779 5777 5770 5762 5757 5762 5761 5764 5768 5769 5769 5768 5768 5767 5767 5766 5766 5766 5765 5764 5764 5763 5762 5762 5761 5760 5759 5758 5757 5757 5756 5755 5755 5755 5754 5754 5754 5754
5802 5798 5777 5759 5746 5737 5743 5757 5764 5774 5781 5779 5769 5766 5760 5757 5763 5762 5765 5768 5767 5766 5765 5765 5765 5765 5764 5764 5764 5763 5762 5762 5761 5760 5759 5759 5758 5757 5756 5755 5754 5753 5753 5752 5752 5752 5752 5751 5751
5794 5781 5768 5751 5745 5753 5757 5763 5771 5771 5774 5774 5767 5756 5759 5766 5766 5764 5766 5766 5764 5763 5763 5763 5763 5762 5762 5762 5761 5761 5760 5759 5758 5757 5757 5756 5755 5754 5753 5752 5751 5750 5750 5750 5749 5749 5749 5748 5748
5787 5767 5751 5741 5747 5758 5766 5772 5774 5768 5765 5765 5763 5750 5750 5762 5767 5765 5764 5763 5762 5760 5760 5760 5761 5761 5760 5760 5759 5758 5758 5756 5756 5755 5754 5753 5752 5751 5750 5749 5748 5748 5747 5747 5746 5746 5746 5745 5745
5768 5756 5737 5732 5744 5758 5766 5773 5771 5763 5760 5761 5758 5748 5747 5760 5761 5761 5762 5761 5760 5759 5758 5758 5758 5758 5758 5757 5757 5756 5755 5754 5753 5752 5751 5750 5749 5748 5747 5746 5745 5744 5744 5744 5743 5743 5743 5742 5742
5759 5747 5737 5739 5741 5750 5763 5772 5766 5760 5757 5759 5760 5745 5745 5754 5759 5761 5760 5758 5757 5757 5756 5755 5755 5756 5755 5755 5755 5754 5753 5752 5751 5750 5749 5747 5746 5745 5744 5743 5742 5741 5741 5741 5740 5740 5739 5739 5739
5766 5748 5739 5738 5740 5747 5765 5770 5768 5763 5758 5766 5762 5745 5741 5751 5759 5759 5757 5754 5753 5753 5753 5752 5752 5752 5752 5753 5752 5752 5751 5750 5749 5747 5746 5745 5744 5743 5742 5740 5740 5739 5738 5738 5738 5737 5737 5736 5736
5769 5739 5730 5739 5742 5748 5763 5762 5764 5768 5761 5760 5760 5756 5755 5757 5756 5753 5750 5748 5748 5748 5749 5749 5749 5749 5749 5750 5750 5749 5748 5748 5746 5745 5744 5743 5741 5740 5739 5738 5737 5736 5735 5735 5735 5734 5734 5733 5733
5754 5731 5740 5753 5755 5754 5759 5759 5759 5754 5748 5747 5749 5753 5756 5754 5751 5747 5744 5743 5743 5745 5746 5747 5747 5747 5747 5748 5747 5746 5746 5745 5744 5743 5742 5741 5740 5738 5737 5736 5735 5733 5733 5732 5732 5732 5731 5730 5729
5754 5742 5750 5757 5761 5760 5757 5757 5760 5747 5738 5742 5743 5746 5749 5748 5746 5744 5743 5744 5745 5746 5746 5746 5746 5746 5746 5745 5745 5744 5743 5743 5742 5742 5741 5739 5738 5737 5735 5734 5733 5732 5731 5729 5729 5729 5728 5727 5726
5752 5753 5757 5756 5760 5759 5754 5754 5750 5747 5745 5750 5751 5750 5746 5744 5742 5742 5742 5742 5744 5744 5745 5746 5746 5745 5744 5744 5743 5742 5742 5741 5741 5740 5739 5738 5736 5735 5734 5732 5731 5729 5728 5727 5726 5725 5725 5724 5723
5748 5749 5756 5757 5757 5755 5753 5748 5745 5743 5748 5749 5747 5745 5742 5741 5740 5742 5743 5743 5743 5742 5743 5744 5744 5743 5743 5742 5742 5741 5741 5740 5740 5739 5738 5737 5735 5733 5732 5730 5728 5727 5726 5724 5723 5722 5722 5721 5719
5748 5749 5750 5752 5751 5751 5744 5741 5740 5738 5744 5742 5740 5738 5739 5738 5738 5738 5739 5739 5740 5741 5742 5743 5743 5743 5742 5741 5740 5740 5739 5738 5738 5738 5737 5736 5734 5732 5730 5728 5726 5725 5724 5722 5721 5720 5718 5717 5716
5751 5741 5739 5742 5745 5745 5740 5727 5731 5738 5740 5735 5734 5734 5734 5735 5737 5736 5738 5738 5739 5739 5741 5741 5741 5741 5741 5740 5739 5738 5737 5737 5737 5736 5735 5734 5732 5731 5729 5726 5724 5723 5722 5720 5718 5717 5716 5714 5712
5738 5725 5715 5730 5739 5740 5729 5710 5727 5736 5734 5728 5727 5728 5729 5731 5734 5736 5738 5738 5739 5738 5738 5739 5740 5739 5738 5738 5737 5736 5735 5735 5734 5733 5733 5732 5730 5729 5727 5725 5723 5722 5720 5718 5716 5714 5711 5709 5708
5715 5704 5706 5718 5734 5734 5723 5712 5725 5732 5730 5724 5723 5724 5725 5727 5730 5733 5736 5737 5737 5736 5736 5736 5737 5736 5736 5736 5735 5734 5733 5732 5731 5731 5730 5729 5728 5727 5725 5723 5721 5720 5718 5716 5714 5711 5709 5705 5704
5700 5702 5705 5710 5726 5726 5717 5715 5722 5727 5726 5721 5720 5719 5721 5722 5726 5731 5733 5735 5735 5734 5735 5734 5734 5733 5733 5733 5732 5730 5729 5729 5729 5728 5728 5727 5726 5725 5724 5721 5719 5718 5716 5713 5711 5708 5707 5704 5703
5712 5708 5704 5713 5727 5721 5713 5712 5716 5721 5720 5717 5716 5716 5717 5720 5725 5729 5731 5731 5731 5730 5731 5731 5731 5731 5731 5729 5727 5725 5724 5725 5725 5726 5726 5725 5724 5723 5722 5720 5718 5716 5713 5711 5709 5707 5704 5702 5702
5712 5704 5703 5712 5724 5718 5709 5709 5716 5719 5720 5720 5718 5716 5717 5718 5720 5723 5726 5727 5727 5727 5728 5728 5729 5729 5729 5728 5727 5726 5724 5723 5723 5723 5723 5723 5723 5722 5721 5718 5716 5714 5712 5710 5708 5706 5702 5700 5701
5708 5703 5702 5704 5712 5714 5705 5698 5706 5715 5720 5720 5720 5719 5719 5719 5718 5720 5722 5723 5724 5725 5726 5727 5727 5727 5727 5727 5726 5724 5722 5721 5719 5719 5720 5721 5721 5720 5719 5717 5715 5714 5712 5708 5707 5706 5703 5699 5699
5697 5712 5711 5705 5694 5685 5695 5675 5694 5705 5709 5714 5715 5715 5716 5720 5720 5720 5720 5720 5722 5724 5726 5725 5725 5726 5725 5725 5724 5721 5717 5715 5716 5717 5718 5719 5719 5718 5718 5716 5715 5713 5711 5709 5707 5706 5704 5702 5698
5705 5715 5709 5703 5692 5683 5687 5677 5687 5700 5700 5708 5713 5715 5717 5719 5720 5720 5721 5721 5723 5724 5724 5723 5723 5723 5723 5723 5723 5720 5717 5716 5716 5716 5716 5716 5716 5717 5716 5715 5714 5712 5710 5709 5707 5706 5705 5703 5700
5715 5706 5698 5687 5678 5667 5680 5676 5680 5693 5706 5712 5715 5717 5718 5719 5720 5720 5722 5721 5721 5722 5721 5720 5720 5720 5721 5721 5721 5719 5717 5715 5714 5713 5713 5713 5713 5714 5714 5714 5713 5711 5710 5708 5707 5706 5705 5704 5702
5703 5679 5661 5659 5654 5660 5684 5680 5686 5711 5720 5722 5720 5719 5719 5718 5718 5718 5717 5717 5718 5718 5718 5718 5718 5718 5719 5719 5719 5718 5718 5716 5714 5713 5712 5711 5711 5711 5712 5712 5711 5710 5709 5708 5707 5706 5704 5704 5702
5693 5680 5658 5650 5650 5661 5679 5677 5698 5722 5728 5728 5726 5723 5720 5717 5717 5717 5718 5717 5717 5717 5717 5717 5717 5717 5717 5717 5717 5717 5718 5716 5715 5714 5713 5712 5711 5712 5712 5711 5710 5709 5709 5708 5707 5705 5704 5703 5702
5689 5680 5681 5665 5664 5659 5668 5685 5704 5719 5719 5720 5719 5718 5716 5716 5716 5716 5717 5717 5717 5716 5716 5716 5716 5716 5716 5716 5716 5716 5716 5715 5715 5714 5714 5713 5712 5712 5711 5710 5709 5709 5708 5707 5706 5704 5703 5702 5701
5700 5689 5670 5661 5651 5649 5664 5675 5683 5700 5706 5712 5713 5714 5716 5717 5716 5716 5716 5716 5716 5716 5716 5716 5717 5715 5715 5715 5715 5715 5715 5715 5714 5714 5712 5712 5712 5712 5710 5709 5708 5707 5707 5706 5705 5703 5701 5700 5699
5690 5686 5675 5662 5658 5648 5649 5666 5703 5705 5710 5710 5713 5716 5717 5717 5717 5716 5715 5716 5716 5715 5715 5715 5715 5714 5714 5714 5714 5714 5713 5713 5713 5712 5712 5712 5711 5710 5709 5708 5707 5706 5705 5704 5703 5701 5700 5698 5697
5696 5688 5676 5659 5657 5656 5651 5667 5712 5713 5715 5715 5716 5718 5717 5718 5718 5717 5715 5715 5714 5713 5714 5714 5714 5713 5713 5713 5713 5712 5711 5711 5710 5710 5711 5711 5710 5710 5709 5708 5706 5705 5704 5703 5702 5700 5698 5697 5695